FW1460 Weather Reports


Display with metric or nautical units.
time (UTC)temp
F
wind
direction
speed
MPH
gust
MPH
rain 1hr
in
rain 24hr
in
rain mn
in
humidity
%
barometer
mb
20260503213035 53 244 3.0 12.0 0.00 0.00 0.00 43 1006.4
20260503211532 53 360 2.0 8.0 0.00 0.00 0.00 41 1006.2
20260503210031 54 347 5.0 12.0 0.00 0.00 0.00 42 1005.8
20260503204531 54 360 2.0 12.0 0.00 0.00 0.00 44 1005.8
20260503203034 54 261 2.0 12.0 0.00 0.00 0.00 44 1005.6
20260503201529 55 320 3.0 9.0 0.00 0.00 0.00 42 1005.4
20260503200027 55 298 1.0 8.0 0.00 0.00 0.00 43 1005.4
20260503194523 53 346 2.0 9.0 0.00 0.00 0.00 46 1005.5
20260503193035 53 341 2.0 12.0 0.00 0.00 0.00 45 1005.3
20260503191547 53 326 3.0 14.0 0.00 0.00 0.00 45 1005.4
20260503190027 53 316 2.0 10.0 0.00 0.00 0.00 49 1005.5
20260503184520 54 345 1.0 6.0 0.00 0.00 0.00 48 1005.5
20260503183019 53 326 5.0 11.0 0.00 0.00 0.00 48 1005.6
20260503181518 53 5 2.0 10.0 0.00 0.00 0.00 51 1005.5
20260503180021 54 355 4.0 16.0 0.00 0.00 0.00 49 1005.4
20260503174515 53 355 4.0 17.0 0.00 0.00 0.00 52 1005.4
20260503173012 52 290 4.0 14.0 0.00 0.00 0.00 52 1005.5
20260503171510 51 325 9.0 20.0 0.00 0.00 0.00 52 1005.6
20260503081529 45 355 1.0 5.0 0.00 0.00 0.00 72 1006.7
20260503071510 46 329 1.0 5.0 0.00 0.00 0.00 67 1007.0
20260503054609 47 307 0.0 6.0 0.00 0.00 0.00 81 1008.3
20260503053050 47 5 0.0 4.0 0.00 0.00 0.00 86 1008.5
20260503051547 47 9 0.0 3.0 0.00 0.00 0.00 89 1008.5
20260503050047 47 9 0.0 4.0 0.00 0.00 0.00 89 1008.4
20260503044546 47 165 0.0 2.0 0.00 0.00 0.00 90 1008.8
20260503043051 48 163 0.0 0.0 0.00 0.00 0.00 90 1008.9
20260503041537 48 163 0.0 0.0 0.00 0.00 0.00 90 1009.0
20260503040035 48 163 0.0 0.0 0.00 0.00 0.00 90 1009.4
20260503034531 48 163 0.0 0.0 0.00 0.00 0.00 90 1009.6
20260503033031 48 163 0.0 0.0 0.00 0.00 0.00 90 1009.5
20260503031530 48 163 0.0 0.0 0.00 0.00 0.00 89 1009.2
20260503030034 48 163 0.0 0.0 0.00 0.00 0.00 89 1009.4
20260503024528 48 163 0.0 0.0 0.00 0.00 0.00 89 1009.3
20260503023028 48 163 0.0 0.0 0.00 0.00 0.00 89 1009.6
20260503021527 48 163 0.0 0.0 0.00 0.00 0.00 89 1009.6
20260503020027 48 163 0.0 0.0 0.00 0.00 0.00 89 1009.7
20260503014526 48 163 0.0 0.0 0.00 0.00 0.00 88 1009.9
20260503013035 49 163 0.0 3.0 0.00 0.00 0.00 88 1009.9
20260503011525 49 177 0.0 2.0 0.00 0.00 0.00 87 1010.0
20260503010024 49 177 0.0 3.0 0.00 0.00 0.00 87 1009.7
20260503004533 49 178 1.0 3.0 0.00 0.00 0.00 87 1009.8
20260503003029 49 178 0.0 2.0 0.00 0.00 0.00 87 1009.8
20260503001524 49 178 0.0 1.0 0.00 0.00 0.00 86 1009.9
20260503000026 49 178 0.0 1.0 0.00 0.00 0.00 86 1009.8
20260502234535 49 178 1.0 3.0 0.00 0.00 0.00 86 1009.7
20260502233031 49 178 0.0 2.0 0.00 0.00 0.00 86 1009.8
20260502231521 49 188 0.0 3.0 0.00 0.00 0.00 85 1009.7
20260502230025 50 194 0.0 3.0 0.00 0.00 0.00 84 1009.9
20260502224519 50 203 1.0 3.0 0.00 0.00 0.00 84 1009.9
20260502223029 50 219 0.0 2.0 0.00 0.00 0.00 82 1009.8
20260502221518 51 177 0.0 0.0 0.00 0.00 0.00 80 1009.6
20260502220022 51 176 0.0 3.0 0.00 0.00 0.00 79 1009.6
20260502214516 51 139 2.0 7.0 0.00 0.00 0.00 80 1009.3